Wind_Speed
63 64 64 64 64 65 66 66 66 65 65 67 69 71 73 74 74 73 72 71 69 68 66 65 64 63 62 61 61 61 61 60 59 58 56 55 53 51
63 64 63 62 62 63 63 65 66 67 67 68 71 72 73 72 70 68 66 64 62 60 59 58 58 58 58 59 59 61 62 62 62 61 59 58 57 55
62 61 61 61 61 62 63 65 66 68 68 67 69 69 67 65 62 59 57 54 51 50 49 50 51 52 53 54 56 58 60 62 63 63 63 61 60 58
61 60 60 59 60 61 63 64 66 67 67 65 61 59 57 54 51 48 46 44 42 41 41 42 42 44 45 47 50 53 56 59 61 63 64 63 62 61
58 58 58 58 59 60 61 63 63 63 61 57 51 48 46 43 40 38 36 35 35 35 35 36 36 37 38 40 43 46 49 52 56 59 62 63 63 63
57 57 57 57 58 59 60 59 58 54 50 46 42 39 36 35 33 30 29 29 29 29 29 30 31 32 33 34 37 40 43 46 49 53 57 60 62 63
55 55 56 57 57 57 55 51 47 43 40 36 33 30 28 27 25 24 23 23 23 24 24 24 25 26 28 29 30 33 36 40 43 46 50 54 58 60
53 54 55 54 53 50 46 41 38 34 31 27 25 23 21 20 19 19 18 18 18 20 20 19 19 19 21 23 25 27 29 32 36 39 43 47 52 55
52 52 51 48 44 39 35 32 29 26 23 21 19 17 17 17 17 17 17 16 16 16 15 15 15 15 16 17 19 21 24 26 30 34 37 40 44 49
49 47 43 38 33 29 26 23 21 20 18 17 16 16 16 16 16 16 16 15 15 15 15 14 14 13 12 13 14 16 18 21 24 27 31 34 38 42
41 37 32 28 23 20 18 16 16 15 15 15 15 16 16 16 16 15 15 15 14 14 13 12 12 12 11 11 11 12 14 16 19 22 26 29 32 36
32 29 24 20 16 14 12 12 12 12 13 14 15 15 16 16 15 15 14 14 13 12 10 10 9 9 9 10 10 11 11 12 15 18 21 24 28 31
25 22 18 14 11 10 9 9 10 11 13 14 15 15 15 15 15 14 13 13 12 10 9 8 7 7 7 8 8 9 10 11 12 15 17 21 24 27
18 15 11 9 7 7 7 8 9 11 12 13 14 15 15 15 14 14 14 13 12 10 8 6 5 5 5 6 7 7 8 10 12 14 16 19 22 25
11 8 6 4 5 6 7 8 10 11 13 14 14 14 14 14 14 14 15 15 13 11 9 7 6 3 2 2 4 6 7 8 10 13 16 19 22 24
5 3 3 3 5 6 7 8 10 12 13 14 14 15 15 15 15 16 16 17 16 14 12 11 9 7 5 3 2 5 7 9 11 14 17 20 24 26
1 3 3 4 5 6 7 9 10 12 14 15 16 16 16 16 16 16 17 17 17 17 15 13 12 10 9 7 5 7 9 11 13 15 18 21 24 26
4 5 5 6 7 7 8 9 11 12 14 15 17 17 18 17 17 17 17 17 17 17 17 17 15 14 12 10 10 10 12 14 16 17 19 21 24 27
6 6 7 8 8 8 9 10 11 12 14 15 17 18 18 18 18 18 18 18 18 18 18 19 18 17 16 14 14 15 16 17 18 19 20 22 23 26
7 7 8 8 9 9 10 11 12 13 14 15 17 18 18 19 19 19 18 19 19 19 19 19 19 19 19 18 18 19 20 21 20 20 21 21 23 25
8 8 8 9 9 10 11 12 13 13 14 15 17 17 18 19 19 19 19 20 19 20 20 20 20 20 20 21 20 21 23 24 24 23 22 22 22 23
9 9 9 10 10 11 12 13 13 14 15 16 17 18 18 19 19 20 21 21 21 21 21 21 22 22 22 22 22 22 24 25 26 26 26 25 24 22
9 10 10 10 11 12 13 13 14 15 16 17 17 18 18 19 20 20 20 21 22 22 22 22 23 23 23 23 23 23 24 24 25 24 25 26 26 25
Wind_Direction
293 293 293 294 295 295 294 293 292 291 289 289 288 287 287 286 284 283 282 280 278 276 273 270 266 263 260 257 254 250 248 246 244 242 240 238 236 235
297 297 297 296 296 295 294 293 292 292 291 290 290 289 288 287 286 284 282 280 278 275 272 268 265 261 258 255 252 248 245 243 241 240 238 236 235 234
298 299 298 298 296 295 294 294 294 294 294 293 292 291 290 289 287 286 283 280 277 274 271 267 264 261 257 253 249 246 243 241 239 238 236 235 234 234
299 299 299 298 296 295 295 296 296 296 296 296 294 293 292 291 290 287 285 281 278 275 272 268 264 261 257 253 249 246 243 240 238 236 235 234 234 233
299 299 298 297 297 298 298 298 298 298 299 299 298 296 295 293 292 290 288 284 280 276 273 269 265 261 258 254 250 247 244 241 238 235 234 233 232 231
299 299 299 299 299 299 300 300 300 301 302 302 301 299 296 295 294 293 291 287 284 279 275 271 267 262 260 256 252 248 244 241 238 235 233 232 231 230
299 299 299 300 300 301 301 302 303 304 304 305 305 303 300 299 299 298 295 291 288 284 281 277 272 266 261 258 254 248 243 240 237 235 233 231 229 228
299 300 300 301 302 302 303 304 305 307 309 309 308 307 306 306 306 304 301 297 293 290 289 285 279 270 262 257 253 248 243 239 235 233 231 230 229 227
300 300 301 302 303 303 303 305 308 312 314 315 315 316 316 314 313 311 310 306 301 296 294 290 285 277 268 260 253 248 243 239 234 231 229 228 226 224
301 301 302 303 304 304 306 309 312 316 319 322 323 322 322 321 319 317 315 311 307 302 297 291 286 281 275 263 255 250 244 239 233 229 226 224 223 221
303 304 305 306 307 308 310 313 317 322 325 327 328 328 328 328 327 325 323 319 314 308 301 293 286 278 271 264 256 250 244 237 231 227 224 221 219 217
305 307 309 310 311 313 316 321 325 327 330 332 333 334 333 333 333 332 330 328 323 316 309 303 294 282 271 263 254 247 239 233 226 222 219 216 214 212
306 308 310 313 317 321 326 330 331 334 336 339 341 342 343 344 345 345 343 341 337 328 319 313 303 288 269 258 251 242 234 228 221 214 211 208 205 203
306 307 311 319 329 336 339 342 344 346 349 351 353 353 354 356 358 359 359 358 358 355 348 339 326 302 271 253 241 231 225 218 212 206 199 196 194 191
303 305 319 340 352 353 353 355 358 360 1 1 3 5 7 10 14 16 16 16 17 16 12 6 1 354 326 245 224 218 208 197 192 191 188 185 183 182
303 320 2 15 11 7 8 12 14 14 14 14 17 21 24 24 25 26 25 26 28 30 31 30 30 36 43 71 151 175 175 173 173 174 175 176 176 175
33 58 56 42 29 25 28 29 28 28 27 29 32 34 33 31 32 31 30 33 35 36 36 36 40 48 56 72 97 131 147 153 158 160 162 165 168 170
89 82 66 50 43 43 43 41 42 40 38 38 39 40 39 38 39 40 40 40 41 42 44 46 51 57 67 78 94 114 130 139 144 149 153 158 163 167
99 82 65 57 54 53 53 54 54 50 47 45 44 43 44 45 45 46 46 47 48 50 52 53 56 62 71 84 98 107 117 128 136 142 148 154 159 164
94 77 66 61 60 61 62 63 62 59 54 50 47 47 47 48 48 50 50 51 53 55 58 59 61 66 74 86 97 106 112 118 125 132 139 147 154 160
86 74 67 65 65 69 71 69 67 63 57 52 50 50 51 52 52 54 54 56 57 59 61 64 68 73 78 87 97 106 111 115 119 123 129 135 144 153
80 72 72 72 75 78 77 75 71 64 58 54 53 54 56 56 57 58 59 62 64 64 67 72 75 80 84 88 95 103 111 115 120 124 129 132 136 143
76 75 79 81 83 84 82 79 73 67 62 58 58 58 59 60 62 62 63 65 68 70 72 74 77 81 85 89 93 99 105 110 115 121 127 132 136 141
Height
5705 5698 5692 5686 5679 5672 5665 5658 5653 5650 5646 5636 5625 5615 5607 5600 5594 5588 5585 5581 5579 5578 5577 5577 5578 5579 5581 5584 5588 5593 5598 5604 5610 5617 5623 5630 5637 5644
5688 5682 5675 5669 5662 5654 5647 5640 5632 5627 5624 5618 5605 5595 5586 5579 5572 5566 5562 5559 5557 5556 5555 5555 5556 5557 5560 5563 5567 5572 5578 5585 5591 5599 5606 5614 5622 5630
5672 5665 5659 5652 5645 5637 5630 5622 5614 5606 5601 5597 5584 5574 5566 5558 5552 5547 5543 5540 5538 5537 5536 5536 5537 5538 5540 5543 5547 5552 5558 5564 5572 5580 5588 5597 5606 5615
5656 5649 5643 5635 5628 5621 5613 5605 5596 5587 5580 5575 5567 5556 5548 5541 5536 5532 5527 5525 5523 5522 5521 5520 5521 5522 5523 5526 5530 5534 5539 5545 5553 5561 5571 5580 5589 5598
5641 5634 5627 5620 5612 5604 5596 5588 5580 5571 5562 5556 5550 5542 5535 5528 5524 5520 5516 5513 5511 5510 5509 5508 5508 5509 5510 5512 5515 5519 5524 5530 5537 5544 5552 5561 5571 5582
5625 5618 5611 5604 5597 5589 5582 5573 5565 5557 5549 5542 5536 5530 5524 5519 5514 5511 5508 5504 5502 5500 5498 5498 5497 5498 5499 5500 5503 5506 5510 5515 5521 5528 5535 5544 5554 5565
5610 5603 5596 5589 5582 5575 5567 5560 5552 5546 5539 5533 5527 5521 5516 5512 5508 5504 5501 5498 5495 5492 5491 5490 5489 5489 5490 5490 5492 5494 5498 5502 5508 5514 5521 5529 5538 5549
5597 5590 5582 5575 5569 5562 5555 5549 5543 5537 5531 5526 5520 5515 5511 5507 5503 5499 5496 5493 5491 5488 5485 5484 5482 5482 5482 5482 5483 5485 5488 5492 5497 5502 5509 5516 5524 5534
5583 5577 5570 5564 5558 5552 5546 5541 5535 5530 5525 5521 5516 5512 5508 5504 5500 5497 5493 5489 5487 5484 5482 5480 5478 5477 5476 5476 5477 5478 5481 5484 5488 5493 5498 5505 5512 5521
5570 5565 5559 5554 5549 5544 5540 5535 5531 5526 5522 5518 5514 5510 5506 5502 5498 5494 5490 5487 5483 5480 5478 5476 5474 5473 5472 5472 5472 5473 5475 5477 5481 5485 5490 5496 5502 5510
5560 5555 5551 5547 5543 5539 5535 5532 5528 5524 5520 5516 5512 5508 5504 5500 5495 5491 5488 5484 5481 5477 5475 5473 5471 5470 5469 5469 5469 5470 5471 5473 5475 5479 5483 5489 5494 5501
5552 5548 5544 5541 5538 5535 5532 5529 5526 5523 5519 5515 5511 5507 5502 5498 5494 5489 5485 5481 5478 5475 5472 5470 5468 5467 5467 5467 5467 5467 5468 5470 5472 5475 5479 5483 5489 5495
5546 5543 5540 5538 5535 5533 5531 5528 5525 5522 5518 5514 5510 5506 5501 5497 5492 5488 5484 5480 5476 5473 5470 5468 5466 5465 5464 5465 5465 5465 5466 5468 5470 5472 5476 5480 5485 5492
5542 5540 5538 5536 5534 5532 5530 5527 5525 5522 5518 5514 5510 5505 5501 5496 5492 5488 5484 5479 5476 5472 5469 5467 5465 5463 5463 5462 5463 5464 5465 5466 5468 5471 5475 5479 5484 5490
5540 5538 5537 5535 5534 5532 5530 5527 5525 5522 5518 5514 5510 5505 5501 5497 5493 5489 5485 5480 5476 5473 5469 5467 5464 5463 5462 5461 5462 5462 5464 5465 5468 5471 5474 5479 5485 5491
5538 5537 5536 5535 5534 5532 5530 5528 5525 5522 5519 5515 5511 5507 5503 5499 5495 5491 5487 5483 5479 5475 5471 5468 5465 5463 5462 5461 5461 5462 5464 5466 5468 5471 5475 5480 5486 5492
5538 5537 5537 5536 5534 5533 5531 5529 5527 5524 5520 5517 5513 5509 5505 5501 5498 5494 5490 5486 5482 5479 5475 5471 5468 5466 5464 5463 5463 5464 5465 5467 5470 5473 5478 5483 5489 5495
5539 5538 5538 5537 5535 5534 5533 5531 5529 5526 5523 5520 5517 5513 5509 5505 5501 5498 5494 5491 5487 5483 5480 5476 5473 5470 5468 5467 5467 5467 5468 5471 5474 5477 5482 5487 5493 5499
5540 5540 5539 5538 5537 5536 5535 5533 5532 5529 5527 5524 5521 5517 5514 5510 5506 5503 5499 5496 5492 5489 5485 5482 5479 5476 5474 5472 5472 5472 5473 5476 5479 5482 5486 5492 5497 5503
5542 5542 5541 5540 5539 5538 5537 5536 5535 5533 5531 5528 5525 5522 5519 5515 5512 5508 5505 5502 5498 5495 5492 5489 5486 5483 5481 5480 5479 5479 5480 5482 5485 5489 5492 5497 5502 5508
5544 5544 5543 5542 5542 5541 5540 5539 5538 5536 5535 5532 5530 5527 5524 5521 5518 5514 5511 5508 5505 5502 5499 5497 5494 5491 5490 5488 5488 5488 5488 5489 5492 5495 5499 5504 5509 5514
5546 5546 5545 5545 5544 5544 5543 5543 5542 5540 5539 5537 5535 5532 5529 5527 5524 5521 5518 5515 5512 5510 5507 5505 5502 5500 5499 5498 5498 5497 5497 5498 5499 5502 5505 5510 5515 5520
5549 5548 5548 5548 5547 5547 5547 5546 5546 5545 5543 5542 5539 5537 5535 5532 5530 5527 5525 5522 5520 5517 5515 5513 5511 5509 5508 5507 5507 5507 5508 5508 5509 5511 5513 5516 5519 5524